Location: Doussal
(55.6167°N, 116.8333°W)
Time: 09:37:16
(UTC+00:00)

KAITUO 1B - Visible Passes

Search period start: 02 December 2023 00:00
Search period end: 12 December 2023 00:00
Orbit: 351 x 358 km, 97.4° (Epoch: 01 December)

Date Brightness Start Highest point End Pass type
(mag) Time Alt. Az. Time Alt. Az. Time Alt. Az.
02 Dec ? 14:35:05 10° ENE 14:36:27 13° E 14:37:50 10° ESE visible
03 Dec ? 15:00:22 10° NE 15:02:46 24° E 15:05:08 10° SSE visible
06 Dec ? 14:46:14 10° NE 14:48:08 16° E 14:50:02 10° SE visible
07 Dec ? 15:10:26 10° NNE 15:13:00 30° E 15:15:33 10° SSE visible
09 Dec ? 14:29:50 10° ENE 14:30:23 10° E 14:30:57 10° E visible
10 Dec ? 14:52:10 10° NE 14:54:16 18° E 14:56:21 10° SE visible
11 Dec ? 15:15:05 10° NNE 15:17:43 33° E 15:20:19 10° SSE visible
